COSMOS 1087

Satellite information

Favourite Embed

Satellite Type and Status

PAYLOADIN ORBIT

Key statistics

Satellite COSMOS 1087 at a glance.

Uptime

16861

Days in orbit

Revolutions

≈ 12.4

Per day

Orbit

LEO

Low Earth Orbit

Inclination

74.0

Latest

Satellite identification and parameters

Extended collection of information and parameters for COSMOS 1087.

Object identification

Identified? True

Debris? False

Object name: COSMOS 1087

International designator: 1979-024G

Object number (NORAD): 11302

Object ID (CCSDS): 11302

Country: COMMONWEALTH OF INDEPENDENT STATES (CIS)

Current information (Y/N): Y

RCS size: MEDIUM

Orbital parameters

Period: 115.861 minutes

Inclination: 74.0326 deg

SMA: 7872.591 km

Apoapsis: 1523.354 km

Periapsis: 1465.558 km

RAAN: 85.5109 deg

Eccentricy: 0.0036707

Argument of periapsis: 104.8556 deg

Mean anomaly: 68.4606 deg

Mean motion: 12.42871578 rev/day

Mean motion (dot): -0.00000025 rev/day2

B* drag term: -0.000067184 1/REarth

Two-line elements (TLE)

Creation date: May 12, 2025, 7:41 p.m.

Reference frame: TEME

Reference center: EARTH

Epoch: May 12, 2025, 2:57 p.m. UTC

TLE line 0: 0 COSMOS 1087

TLE line 1: 1 11302U 79024G 25132.62314911 -.00000025 00000-0 -67184-4 0 9998

TLE line 2: 2 11302 74.0326 85.5109 0036707 104.8556 68.4606 12.42871578 94267

Live tracking on map

Real-time ground track for satellite COSMOS 1087.

In-orbit conjunctions

A list of the most updated potential collisions computed for object COSMOS 1087.

Target Orbit TCA Probability of collision Miss distance Type
THORAD DELTA 1 DEB SSO 2024-12-03 00:14:18 0.0001040044 968.0 (m) DEBRIS

Associated space launch

Military communications satellites

COSMOS 1087 was lifted into orbit during the mission ‘Kosmos-3M | Strela-1M 169-176’, on board a Kosmos-3M space rocket.

The launch took place on March 15, 1979, 2:58 a.m. from 132/2.

For more information about the launch, click the button.

Launch to space Kosmos-3M | Strela-1M 169-176
Kosmos-3M | Strela-1M 169-176

Agency: N/A

Status: Launch Successful

Launch date: March 15, 1979, 2:58 a.m. UTC

Rocket: Kosmos-3M

Launch pad: 132/2

Location: Plesetsk Cosmodrome, Russian Federation

...

Latest news about this satellite

There are no fresh news available about this satellite. Check back as we update our databases every day.


Newsletter sign-up

Weekly statistics, charts and insights to help you stay on top of the space industry.